Location: Kapla
(46.2483°N, 15.0094°E)
Time: 21:05:14
(UTC+00:00)

Cosmos 962 Rocket - Pass Details

Date: 03 March 2021
Orbit: 951 x 999 km, 83.0° (Epoch: 20 April)

Event Time Altitude Azimuth Distance (km) Brightness Sun altitude
Rises 18:07:35 0° 179° (S) 3,637 7.4 -14.3°
Reaches altitude 10° 18:10:04 10° 177° (S) 2,701 6.7 -14.8°
Maximum altitude 18:16:13 72° 95° (E) 1,026 4.4 -15.8°
Drops below altitude 10° 18:22:30 10° 12° (NNE) 2,754 6.8 -16.9°
Sets 18:25:03 0° 11° (N) 3,713 7.5 -17.3°
